Airfield :
LOGIN :

Register | Disclaimer

   EN    FR    IT 

 










Legend :    VFR   Marginal VFR   IFR   Intensive IFR   Very Intensive IFR
Visi :
Ceiling :
>= 8 km
>= 3000ft
5 to 8 km
1000 to 3000 ft
1500m to 5 km
500 to 1000 ft
800 to 1500m
200 to 500 ft
< 800m
< 200 ft
Symbols :   Thunderstorms  Fog  Heavy snow  Heavy precipitations  Wind > 20 kt
SIGMETs :     Misc.  Thunderstorms  Icing  Turbulence  Mountain Waves  Volcanic Ashes







- Airport Elevation : 39 ft
- IATA code : CTA


LICC - Catania Fontanarossa

CURRENT METAR :
  • 221550Z 06018KT CAVOK 16/10 Q1021

EXPIRED METARs :
  • 221520Z 07018KT CAVOK 16/10 Q1021
  • 221450Z 06015KT CAVOK 16/11 Q1022
  • 221420Z 07017KT CAVOK 16/11 Q1022
  • 221350Z 07017KT 9999 SCT120 17/11 Q1022
  • 221320Z 06019KT 9999 SCT120 17/11 Q1022

TAF TAF LICC
Valid from the 22 at 12:00 until the 23 at 12:00 UTC


221100Z 2212/2312 08015KT 9999 SCT030 BKN060
No reported NOTAMs for that airfield.



MET'MAP, your aeronautical weather chart ! - Copyright ORBIFLY December 2007 - Disclaimer

ORBIFLY MET'MAP TEAM :

Programming & Development : Alexandra Zaïnal
Concept & Development : Baudouin d'Aumeries
Co-Development & Prog : Marc-Olivier Méhu
Technical & hardware support : Manuel Goepfert

Contact : metmap@orbifly.com




SOURCES & CREDITS :

   NOAA